Date,TemperatureHighF,TemperatureAvgF,TemperatureLowF,DewpointHighF,DewpointAvgF,DewpointLowF,HumidityHigh,HumidityAvg,HumidityLow,PressureMaxIn,PressureMinIn,WindSpeedMaxMPH,WindSpeedAvgMPH,GustSpeedMaxMPH,PrecipitationSumIn
2013-1-1,18.9,2.5,-12.3,16.2,-1.2,-16.5,90,84,75,30.38,30.12,7,0,7,0.00
2013-1-2,21.1,16.8,13.7,18.4,14.5,11.8,93,90,84,30.15,30.01,12,0,12,0.00
2013-1-3,19.1,11.2,7.2,15.1,7.0,3.1,91,83,72,30.34,30.14,11,1,13,0.00
2013-1-4,28.3,16.7,7.9,18.2,12.3,5.3,91,83,65,30.19,30.09,9,0,9,0.02
2013-1-5,22.6,13.9,5.3,14.5,9.9,2.2,93,84,69,30.15,29.92,13,1,13,0.00
2013-1-6,20.3,13.9,8.4,13.1,9.6,4.2,91,83,70,30.29,30.08,11,1,12,0.00
2013-1-7,34.1,26.5,15.4,26.3,21.8,13.1,94,83,72,30.08,29.94,15,0,17,0.05
2013-1-8,34.6,23.9,10.4,28.6,20.7,8.1,100,88,75,30.02,29.80,9,0,9,0.04
2013-1-9,32.4,30.1,27.1,26.9,24.0,21.1,92,78,67,30.31,29.95,19,2,19,0.00
2013-1-10,40.6,30.7,21.6,32.3,25.7,19.6,96,83,54,30.33,29.77,1,0,10,0.40
2013-1-11,38.2,35.1,33.1,37.7,34.4,32.3,98,97,96,29.75,29.39,1,0,12,0.07
2013-1-12,36.4,14.3,3.4,35.9,9.0,-2.2,98,79,69,30.14,29.40,3,1,16,0.00
2013-1-13,7.4,3.6,0.1,1.4,-1.4,-4.6,86,79,74,30.33,30.12,4,1,11,0.00
2013-1-14,11.4,5.7,1.3,3.9,1.3,-1.7,92,82,70,30.51,30.34,3,0,9,0.00
2013-1-15,29.5,15.5,2.4,19.2,10.4,-0.3,93,81,60,30.35,29.90,2,0,13,0.00
2013-1-16,35.9,24.8,10.3,32.2,18.3,0.5,94,76,53,30.28,29.72,14,3,15,0.02
2013-1-17,18.6,11.0,3.2,11.7,3.4,-3.2,85,71,57,30.46,30.28,10,0,12,0.00
2013-1-18,41.2,28.4,15.8,31.9,23.9,11.6,93,83,68,30.36,29.77,12,0,15,0.00
2013-1-19,38.4,21.4,1.7,31.8,16.5,-4.1,97,81,63,30.31,29.70,30,5,33,0.01
2013-1-20,1.7,-0.3,-1.2,-4.1,-6.4,-7.5,76,75,73,30.41,30.30,16,3,16,0.00
2013-1-21,-3.5,-7.3,-11.6,-10.2,-14.2,-18.2,81,71,64,30.46,30.37,14,2,21,0.00
2013-1-22,4.1,-4.0,-12.0,-1.5,-10.6,-17.4,86,73,64,30.53,30.34,9,0,10,0.00
2013-1-23,14.5,6.1,-4.7,8.1,-1.6,-14.4,87,70,55,30.70,30.25,27,4,27,0.00
2013-1-24,13.4,2.7,-6.5,4.2,-7.1,-16.3,69,63,56,30.77,30.24,14,1,15,0.00
2013-1-25,18.6,11.6,2.9,15.8,4.3,-3.2,89,72,59,30.38,30.03,30,3,30,0.00
2013-1-26,24.0,11.6,-2.5,13.1,4.2,-6.3,92,73,55,30.43,30.17,10,0,14,0.00
2013-1-27,32.5,28.1,19.5,30.2,23.8,12.9,96,84,66,30.17,29.83,5,0,5,0.04
2013-1-28,35.2,31.9,29.8,33.7,30.8,28.9,97,96,93,29.92,29.65,6,0,9,0.29
2013-1-29,34.6,32.4,31.2,31.3,30.4,26.9,97,92,83,29.73,29.54,16,3,17,0.16
2013-1-30,27.2,14.8,7.6,22.7,8.9,1.5,84,77,73,29.83,29.67,24,7,24,0.00
2013-1-31,7.6,-0.3,-8.9,2.3,-6.6,-15.5,87,74,68,30.38,29.83,23,5,24,0.00
2013-2-1,5.0,-4.2,-15.1,1.7,-10.2,-19.5,89,75,58,30.43,30.14,9,0,9,0.00
2013-2-2,10.3,5.5,0.8,6.5,0.3,-4.1,87,79,64,30.27,30.05,9,1,10,0.00
2013-2-3,12.8,9.5,3.1,8.4,4.6,-1.4,88,80,68,30.17,30.03,14,1,16,0.00
2013-2-4,15.1,9.2,1.4,11.2,2.6,-3.5,90,75,55,30.14,29.82,10,1,10,0.00
2013-2-5,28.7,19.9,2.0,25.5,15.8,-1.7,96,84,65,30.13,29.73,14,2,15,0.00
2013-2-6,26.6,14.4,-2.6,20.1,10.7,-6.1,90,85,75,30.17,29.98,7,0,7,0.00
2013-2-7,26.7,24.7,20.5,22.8,21.4,17.6,93,87,79,30.30,30.03,18,4,18,0.00
2013-2-8,26.5,23.3,19.7,21.7,18.3,14.4,87,81,72,30.41,30.25,7,0,11,0.03
2013-2-9,32.2,28.3,25.0,28.5,25.3,21.7,93,88,84,30.26,29.95,15,1,15,0.03
2013-2-10,32.8,30.2,28.0,32.0,28.7,25.2,97,94,89,29.95,29.29,17,2,18,0.00
2013-2-11,29.3,23.8,14.1,28.3,19.3,10.4,96,83,76,30.09,29.36,26,6,26,0.00
2013-2-12,35.7,22.5,10.2,25.0,17.6,7.1,93,82,62,30.09,29.85,10,0,11,0.24
2013-2-13,39.4,27.1,14.7,32.0,23.1,12.5,100,85,66,29.85,29.59,7,0,7,0.31
2013-2-14,32.4,25.0,11.1,31.1,19.0,3.5,96,79,52,30.22,29.60,20,4,20,0.03
2013-2-15,31.6,9.8,2.3,9.4,2.2,-5.8,92,72,37,30.38,30.22,14,2,17,0.00
2013-2-16,17.1,6.6,-2.9,8.1,2.0,-6.7,100,81,66,30.34,30.17,7,0,7,0.00
2013-2-17,33.0,20.3,4.7,23.7,14.9,1.2,97,80,65,30.19,29.66,15,0,15,0.04
2013-2-18,32.9,20.8,5.3,30.6,16.5,1.0,94,83,74,29.87,29.55,22,4,23,0.01
2013-2-19,5.5,1.6,-4.4,1.1,-5.5,-10.6,82,71,64,30.46,29.87,21,6,23,0.00
2013-2-20,15.5,3.2,-10.9,5.7,-4.1,-15.5,84,72,57,30.56,30.46,10,1,11,0.00
2013-2-21,22.2,13.3,-0.6,12.6,5.8,-3.9,92,72,58,30.52,30.14,12,1,16,0.00
2013-2-22,26.3,22.1,19.0,20.9,18.5,12.6,92,86,70,30.14,29.90,13,2,13,0.04
2013-2-23,26.8,18.7,6.9,21.5,15.3,4.3,93,87,75,30.02,29.90,5,0,6,0.04
2013-2-24,33.3,15.6,-1.6,23.0,10.8,-4.9,100,82,63,30.16,30.01,5,0,7,0.07
2013-2-25,35.6,25.7,14.3,25.3,20.5,11.6,93,81,64,30.16,30.07,6,0,6,0.02
2013-2-26,33.9,25.4,11.7,28.6,20.9,9.3,95,83,74,30.09,29.92,19,4,19,0.00
2013-2-27,38.8,31.4,26.7,26.2,24.5,21.7,85,76,57,30.06,29.90,20,5,22,0.00
2013-2-28,29.2,27.6,23.7,22.9,20.8,16.1,82,75,69,30.25,30.06,15,3,17,0.00
2013-3-1,27.5,23.2,12.6,18.3,15.6,8.4,84,72,65,30.40,30.25,14,3,15,0.00
2013-3-2,29.2,17.7,2.1,15.6,9.9,-0.9,97,73,48,30.41,30.22,6,0,7,0.00
2013-3-3,34.2,23.1,17.3,14.8,11.4,9.1,73,61,42,30.22,30.04,9,0,10,0.00
2013-3-4,28.0,24.6,21.9,21.4,18.5,15.1,92,78,60,30.06,29.97,2,1,16,0.01
2013-3-5,29.0,25.0,19.9,24.2,21.5,16.2,93,86,79,30.34,30.00,14,3,16,0.03
2013-3-6,26.7,21.2,5.9,19.2,16.0,2.9,89,80,70,30.46,30.34,12,2,14,0.04
2013-3-7,32.2,17.0,0.1,20.8,11.3,-3.2,93,79,59,30.44,30.34,7,0,9,0.21
2013-3-8,38.7,26.8,14.2,29.8,22.3,12.1,93,83,67,30.38,30.11,6,0,7,0.20
2013-3-9,36.6,34.3,32.4,35.8,33.2,28.7,97,95,83,30.12,29.71,6,0,7,0.53
2013-3-10,33.8,32.3,28.8,33.8,28.6,24.2,100,86,80,29.97,29.79,23,8,27,0.03
2013-3-11,29.9,26.6,20.7,24.0,21.3,15.2,84,80,69,29.89,29.78,17,5,19,0.00
2013-3-12,27.0,23.4,19.6,20.3,16.2,11.4,83,74,55,30.25,29.87,21,5,22,0.00
2013-3-13,30.2,20.3,11.4,19.0,13.8,8.3,87,76,58,30.44,30.25,13,2,14,0.00
2013-3-14,41.3,30.0,23.2,29.3,24.0,18.4,92,79,60,30.30,30.05,8,0,10,0.06
2013-3-15,33.6,30.1,24.4,31.3,27.8,22.3,94,91,87,30.05,29.84,14,2,14,0.15
2013-3-16,24.4,19.9,11.6,22.4,13.8,4.6,92,77,58,30.29,29.92,15,4,17,0.00
2013-3-17,27.7,18.4,7.6,21.6,9.0,0.5,80,67,53,30.32,29.91,11,1,11,0.00
2013-3-18,29.1,21.2,10.7,27.8,16.4,4.8,95,81,70,29.91,29.64,19,2,19,0.00
2013-3-19,20.7,11.8,5.0,7.5,2.5,-1.4,78,66,49,30.28,29.88,21,4,21,0.06
2013-3-20,18.5,11.2,4.3,5.8,1.1,-3.4,79,64,54,30.31,30.20,24,5,24,0.00
2013-3-21,25.5,13.2,-3.7,10.5,4.1,-7.5,89,68,50,30.20,30.11,9,1,9,0.03
2013-3-22,36.0,19.7,1.7,17.2,10.3,-1.5,90,69,44,30.17,30.09,6,0,6,0.07
2013-3-23,36.1,25.2,10.8,21.2,16.3,8.1,93,71,48,30.20,30.13,7,1,9,0.00
2013-3-24,32.4,28.3,24.4,24.7,22.5,20.2,91,79,63,30.15,30.01,17,4,18,0.00
2013-3-25,35.5,28.9,22.4,23.2,19.0,15.7,82,66,49,30.27,30.07,18,5,19,0.00
2013-3-26,37.4,27.7,20.7,24.7,19.8,15.9,90,73,55,30.34,30.26,12,1,13,0.00
2013-3-27,43.5,27.2,11.8,23.4,17.6,9.4,94,71,39,30.40,30.34,6,0,7,0.00
2013-3-28,44.6,30.1,14.7,28.9,22.0,12.6,100,74,48,30.38,30.31,7,0,7,0.00
2013-3-29,50.8,38.3,25.5,37.4,31.6,22.9,93,78,56,30.32,30.07,9,0,11,0.00
2013-3-30,51.0,42.2,36.9,43.1,37.7,33.7,97,84,72,30.08,29.86,12,1,14,0.16
2013-3-31,37.4,29.6,22.3,31.2,20.1,14.3,94,68,49,30.13,29.82,19,7,26,0.00
2013-4-1,31.6,24.0,16.7,18.3,14.6,11.1,79,68,53,30.32,30.13,20,4,20,0.00
2013-4-2,34.2,25.1,14.0,17.8,15.3,11.4,93,68,42,30.40,30.30,14,2,15,0.00
2013-4-3,45.2,31.3,13.2,33.2,22.6,10.9,100,72,45,30.44,30.09,17,1,17,0.00
2013-4-4,47.6,40.4,31.0,33.6,29.3,23.7,83,65,45,30.19,30.02,19,4,19,0.00
2013-4-5,42.7,32.9,24.6,33.5,25.5,18.4,99,76,45,30.26,29.90,10,1,10,0.07
2013-4-6,54.3,41.2,34.4,47.2,35.6,30.8,93,81,63,29.91,29.51,16,2,16,0.12
2013-4-7,47.4,39.8,34.7,39.7,34.6,30.9,94,82,67,29.96,29.76,10,1,10,0.11
2013-4-8,45.3,41.8,39.7,41.7,39.8,36.2,97,93,85,30.05,29.68,14,2,15,0.71
2013-4-9,41.5,37.3,31.1,37.4,32.1,28.8,94,82,62,30.18,29.97,23,7,24,0.55
2013-4-10,37.1,33.5,29.6,30.9,27.2,23.8,100,78,64,30.21,29.92,17,3,18,0.24
2013-4-11,34.9,32.4,29.7,32.2,30.0,26.0,96,91,71,29.93,29.70,17,3,18,0.63
2013-4-12,34.6,30.4,26.9,29.5,27.4,25.1,95,89,76,29.87,29.70,12,3,13,0.26
2013-4-13,36.4,31.6,27.5,27.6,26.4,24.6,95,81,66,29.98,29.86,10,1,10,0.23
2013-4-14,35.2,31.8,29.3,34.2,28.6,24.4,97,88,74,29.97,29.49,19,2,22,0.58
2013-4-15,40.4,34.8,30.6,32.4,29.6,26.3,96,81,70,30.01,29.54,15,1,19,0.07
2013-4-16,41.3,35.8,31.9,29.8,27.9,26.5,85,73,60,30.34,29.99,15,2,18,0.00
2013-4-17,40.2,35.9,31.0,34.7,30.7,27.4,95,81,71,30.34,29.91,17,2,17,0.25
2013-4-18,33.7,31.6,30.1,32.3,30.3,29.1,97,95,90,29.95,29.54,25,6,25,0.14
2013-4-19,35.9,31.3,28.3,29.2,26.2,19.9,97,82,60,30.03,29.53,26,5,30,0.35
2013-4-20,41.9,31.1,20.4,22.3,18.2,10.8,87,61,34,30.33,30.03,7,1,9,0.12
2013-4-21,50.1,39.9,32.3,45.1,35.9,20.5,97,86,62,30.34,30.02,14,1,14,0.20
2013-4-22,42.8,35.7,31.2,36.4,32.0,30.2,96,87,65,30.22,30.11,16,4,17,0.10
2013-4-23,39.4,32.8,26.4,30.1,25.2,19.8,96,75,48,30.19,30.10,16,4,16,0.28
2013-4-24,52.2,36.1,23.0,34.0,28.4,20.7,95,77,38,30.10,29.93,23,1,23,0.02
2013-4-25,50.1,40.0,30.9,34.3,30.0,26.6,91,69,41,30.24,30.01,15,1,16,0.00
2013-4-26,68.8,54.5,41.3,49.5,40.3,31.8,86,61,36,30.12,29.97,13,1,13,0.00
2013-4-27,74.9,56.5,34.2,47.4,39.4,31.6,95,58,28,30.12,29.88,14,0,14,0.00
2013-4-28,81.6,62.2,47.4,53.0,48.6,43.8,92,65,33,29.88,29.59,18,2,21,0.08
2013-4-29,74.3,60.1,46.1,56.5,47.3,37.8,94,66,37,29.79,29.51,12,1,12,0.00
2013-4-30,68.8,62.5,55.0,59.6,46.9,30.5,91,60,27,29.95,29.37,17,2,18,0.00
2013-5-1,55.2,40.0,33.4,39.8,34.3,29.2,94,81,51,30.50,29.95,19,3,19,0.47
2013-5-2,45.6,39.4,35.1,30.5,28.1,25.9,77,64,47,30.57,30.43,20,7,21,0.00
2013-5-3,36.5,33.9,31.7,33.1,29.0,24.7,92,82,66,30.43,30.17,21,6,22,0.07
2013-5-4,47.7,38.6,32.4,41.8,35.6,29.9,94,89,78,30.19,30.13,17,5,19,0.04
2013-5-5,62.6,47.7,37.9,49.8,41.8,35.8,93,81,62,30.19,30.07,11,2,11,0.01
2013-5-6,74.3,59.0,41.3,52.1,47.2,39.7,97,69,41,30.11,29.98,10,1,11,0.00
2013-5-7,78.9,62.6,44.9,53.9,48.9,43.4,97,65,34,30.05,29.92,9,0,10,0.00
2013-5-8,56.4,54.7,53.3,53.2,51.0,48.9,91,87,82,29.95,29.93,2,0,2,0.00
2013-5-15,77.6,65.3,50.1,52.5,48.3,44.2,86,56,35,29.88,29.64,7,2,17,0.00
2013-5-16,82.1,67.0,46.5,51.4,47.1,35.9,95,55,29,29.89,29.80,4,1,17,0.00
2013-5-17,65.6,57.2,53.9,55.2,51.8,42.4,96,84,46,29.96,29.85,2,1,10,0.78
2013-5-18,79.8,64.1,55.1,68.7,60.4,54.1,99,89,63,29.98,29.76,2,0,13,1.77
2013-5-19,79.8,67.5,62.7,71.1,64.5,61.3,98,90,69,29.76,29.50,4,0,13,1.57
2013-5-20,70.9,64.8,58.4,63.6,60.7,56.7,99,87,70,29.54,29.46,1,0,15,0.34
2013-5-21,61.6,56.2,48.6,59.8,55.0,47.5,97,96,92,29.69,29.48,4,1,12,0.21
2013-5-22,52.7,48.2,44.2,50.1,46.5,43.4,97,94,76,29.99,29.68,19,4,21,0.20
2013-5-23,62.5,52.1,43.5,45.0,38.2,30.6,87,62,32,30.34,29.99,17,4,18,0.00
2013-5-24,69.3,53.0,34.4,52.3,42.1,32.0,95,69,40,30.39,30.13,11,0,12,0.24
2013-5-25,60.2,54.6,51.2,51.7,49.3,44.3,96,83,69,30.25,30.19,9,1,13,0.02
2013-5-26,56.4,53.7,50.4,50.1,45.4,40.5,81,74,61,30.21,30.01,11,1,12,0.00
2013-5-27,59.8,55.8,52.5,55.1,52.1,48.8,96,88,76,30.04,29.81,9,1,10,0.10
2013-5-28,59.0,55.5,52.5,57.0,54.1,51.2,99,95,91,29.81,29.70,8,0,9,0.06
2013-5-29,72.9,63.0,50.5,70.7,61.2,49.6,99,94,81,29.81,29.60,7,0,9,0.46
2013-5-30,75.7,66.9,61.4,66.2,63.7,60.5,99,90,69,29.65,29.47,14,0,15,0.20
2013-5-31,77.0,66.0,58.3,62.9,58.2,53.6,98,78,49,29.52,29.47,14,1,17,0.05
2013-6-1,70.5,58.2,50.9,60.1,53.1,44.3,98,84,62,29.93,29.50,21,3,21,0.01
2013-6-2,63.3,54.6,46.2,47.2,43.8,41.0,92,68,46,30.07,29.93,16,2,17,0.00
2013-6-3,68.8,57.3,41.6,52.3,46.5,40.3,98,70,44,30.06,29.91,6,0,6,0.00
2013-6-4,60.6,58.0,55.9,55.4,50.6,47.3,91,77,63,30.04,29.96,4,0,6,0.01
2013-6-6,55.6,52.9,50.2,53.3,50.8,48.6,96,92,88,30.03,29.95,3,2,11,0.00
2013-6-7,63.6,57.0,51.5,54.7,52.2,50.1,96,84,67,30.05,29.90,1,0,6,0.00
2013-6-8,70.6,61.0,50.7,58.7,54.7,49.3,98,81,61,29.91,29.85,1,0,9,0.00
2013-6-9,65.7,59.8,55.9,62.4,57.7,54.8,96,93,83,29.87,29.74,2,1,16,0.60
2013-6-10,73.3,64.3,57.5,64.5,60.8,55.8,98,89,74,29.83,29.78,2,0,9,0.00
2013-6-11,74.7,64.3,53.5,68.4,61.6,52.7,99,91,78,29.86,29.79,2,0,7,0.02
2013-6-12,71.2,66.2,60.0,65.8,61.7,54.6,98,86,68,29.91,29.73,15,2,15,0.83
2013-6-13,76.2,66.7,57.1,59.7,55.6,51.3,93,69,49,30.08,29.89,13,2,15,0.22
2013-6-14,77.8,67.3,52.9,65.1,59.5,51.1,96,77,60,30.05,29.83,10,0,13,0.06
2013-6-15,74.7,67.1,59.1,69.7,64.1,57.7,98,90,78,29.87,29.80,9,0,11,0.01
2013-6-16,85.3,67.1,52.3,61.9,56.8,49.2,98,75,32,29.90,29.81,27,0,28,0.01
2013-6-17,79.8,68.2,55.5,62.2,58.1,54.7,98,73,43,29.97,29.84,14,1,14,0.00
2013-6-18,75.9,65.0,55.2,61.9,56.5,50.1,92,75,52,30.05,29.97,9,1,10,0.00
2013-6-19,84.0,69.5,55.5,68.7,60.9,54.1,97,76,51,30.03,29.89,11,0,11,0.00
2013-6-20,86.8,75.8,65.5,72.6,66.6,61.2,92,74,54,29.95,29.81,15,0,15,0.00
2013-6-21,79.2,70.6,62.3,71.6,66.1,60.6,97,86,70,30.04,29.69,27,2,32,0.07
2013-6-22,78.7,70.3,63.9,71.4,67.1,63.1,99,90,75,29.95,29.78,6,0,9,0.09
2013-6-23,81.4,72.6,65.0,72.6,68.3,63.3,98,87,64,29.85,29.64,12,0,16,0.27
2013-6-24,81.5,70.3,60.4,73.4,66.8,59.5,99,89,72,29.87,29.76,9,0,9,0.06
2013-6-25,83.8,73.8,62.2,75.3,69.1,61.3,99,86,67,29.79,29.65,7,0,8,0.04
2013-6-26,86.5,76.8,69.2,77.1,70.7,65.2,99,83,57,29.77,29.59,13,1,15,0.02
2013-6-27,84.4,75.2,65.6,68.5,63.0,55.1,97,69,37,29.78,29.74,16,2,19,0.01
2013-6-28,76.4,70.4,64.8,64.4,61.2,58.0,95,73,61,29.78,29.71,21,3,22,0.01
2013-6-29,75.4,67.5,58.9,63.1,59.1,51.0,96,76,52,29.95,29.71,15,3,16,0.00
2013-6-30,64.7,57.0,54.2,55.6,52.7,50.6,92,85,73,30.07,29.95,9,0,9,0.00
2013-7-18,89.2,79.4,70.4,77.8,73.3,69.8,98,83,64,30.05,29.71,1,0,15,0.35
2013-7-19,80.9,76.4,66.6,71.8,66.7,62.2,93,73,55,29.84,29.67,4,1,15,0.14
2013-7-20,79.7,70.0,61.2,68.0,62.7,59.0,94,78,60,29.92,29.83,4,1,14,0.03
2013-7-21,80.2,68.3,57.5,70.4,62.8,52.6,97,83,67,29.92,29.76,1,0,7,0.18
2013-7-22,83.7,72.5,64.6,74.3,66.3,57.2,98,82,61,29.80,29.64,5,1,17,0.10
2013-7-23,73.5,66.4,58.5,58.3,56.5,54.6,89,72,53,29.99,29.81,5,2,14,0.06
2013-7-24,77.2,67.5,55.2,65.4,60.8,53.7,96,80,56,30.05,29.94,7,0,7,0.06
2013-7-25,78.4,68.7,59.0,70.2,63.2,57.9,99,84,63,29.95,29.87,11,0,12,0.04
2013-7-26,69.0,63.0,55.8,65.9,56.8,49.3,96,81,65,30.06,29.87,19,3,22,0.03
2013-7-27,61.7,56.7,50.4,53.5,49.1,46.0,92,76,60,30.06,29.92,18,2,18,0.01
2013-7-28,70.2,59.1,49.1,57.1,51.3,46.3,94,76,60,30.05,29.95,12,1,12,0.01
2013-7-29,75.2,62.3,48.4,62.7,56.3,47.4,98,82,55,30.11,30.05,3,0,4,0.00
2013-7-30,69.8,65.0,60.7,66.3,62.7,59.0,97,92,85,30.08,30.02,3,0,3,0.01
2013-7-31,77.8,65.7,57.1,68.8,60.4,53.8,100,84,57,30.06,29.96,11,0,11,0.00
2013-8-1,79.8,65.3,50.8,64.6,57.7,49.6,98,79,48,30.02,29.83,6,0,6,0.01
2013-8-2,74.5,65.6,55.2,61.0,56.9,53.2,94,75,51,30.02,29.82,9,1,11,0.00
2013-8-3,75.0,63.1,51.2,59.4,54.2,50.3,98,76,46,30.18,30.02,10,0,13,0.00
2013-8-4,73.5,60.7,49.8,63.9,55.8,48.5,98,85,62,30.21,29.98,3,0,3,0.00
2013-8-5,76.2,66.1,56.8,70.1,63.4,55.1,99,92,74,30.01,29.76,6,0,6,0.54
2013-8-6,64.4,57.6,54.4,60.8,56.3,53.4,98,95,89,29.82,29.78,4,0,6,0.01
2013-10-28,40.9,35.9,29.1,30.4,25.9,22.8,86,68,50,30.44,30.12,5,2,16,0.23
2013-10-29,40.7,36.0,28.4,36.1,29.0,23.3,91,75,70,30.43,30.12,2,0,11,0.05
2013-10-30,47.8,43.3,38.2,47.3,42.5,36.4,98,97,93,30.12,29.71,1,0,9,0.09
2013-10-31,48.3,41.9,39.2,47.8,40.6,37.3,98,95,89,29.69,29.41,1,0,11,0.03
2013-11-1,49.7,42.4,36.0,39.1,37.2,31.6,95,83,65,29.85,29.42,4,2,14,0.00
2013-11-2,46.6,37.7,29.0,36.8,32.0,27.2,94,81,59,30.10,29.85,5,1,16,0.00
2013-11-3,54.1,47.4,28.7,37.8,35.3,27.2,96,64,48,30.12,29.88,16,1,19,0.00
2013-11-4,47.4,42.1,29.9,44.3,36.9,28.5,97,82,65,30.16,29.82,12,0,13,0.17
2013-11-5,43.1,33.1,25.2,36.8,29.4,24.0,98,87,56,30.27,30.04,14,1,14,0.02
2013-11-6,36.1,31.7,27.1,31.5,27.4,24.1,96,85,66,30.20,30.04,15,1,15,0.18
2013-11-7,34.2,27.5,22.0,30.2,25.3,20.4,95,91,84,30.28,30.19,11,0,11,0.03
2013-11-8,44.1,33.8,19.7,40.2,28.6,18.2,97,83,59,30.24,29.63,12,0,12,0.00
2013-11-9,43.5,40.1,34.5,40.1,33.3,26.5,89,77,63,30.23,29.65,25,3,25,0.00
2013-11-10,41.4,36.4,31.5,32.1,29.8,26.8,85,77,65,30.35,30.10,15,1,15,0.00
2013-11-11,37.2,24.0,15.4,32.1,15.0,8.9,86,68,55,30.78,30.14,19,6,22,0.00
2013-11-12,27.0,18.0,10.3,15.6,10.7,6.5,92,74,52,30.85,30.50,7,0,7,0.00
2013-11-13,49.4,33.8,17.0,35.7,25.4,13.8,88,72,54,30.50,29.90,18,1,18,0.00
2013-11-14,50.9,37.8,27.5,40.6,32.6,25.5,93,82,67,29.90,29.76,6,0,6,0.00
2013-11-15,54.2,38.4,23.6,41.0,33.3,22.1,97,83,58,29.87,29.65,7,0,9,0.00
2013-11-16,46.4,41.4,35.9,45.6,39.6,33.6,97,93,82,29.65,29.23,10,0,11,0.15
2013-11-17,42.7,36.8,30.6,39.8,32.3,24.4,98,84,78,29.86,29.31,23,5,26,0.00
2013-11-18,33.7,27.4,17.6,25.2,21.1,15.7,92,77,63,30.29,29.85,22,4,25,0.00
2013-11-19,46.2,33.7,17.1,32.4,26.0,15.4,95,75,54,30.30,29.93,14,1,15,0.00
2013-11-20,43.9,41.0,37.1,35.3,31.9,27.9,92,71,59,30.04,29.89,13,0,16,0.00
2013-11-21,37.2,29.7,23.2,35.4,25.9,16.2,94,86,72,30.55,30.04,20,5,20,0.00
2013-11-22,32.3,21.7,11.6,17.0,12.0,3.0,92,68,38,30.69,30.50,20,3,23,0.00
2013-11-23,16.1,10.3,6.2,5.4,2.9,1.8,83,72,53,30.91,30.69,17,2,20,0.00
2013-11-24,30.1,18.1,3.7,17.2,10.0,0.7,88,71,55,30.78,30.05,17,1,17,0.00
2013-11-25,37.7,32.3,26.6,29.1,24.2,17.2,88,72,61,30.11,29.95,20,2,20,0.00
2013-11-26,29.7,20.1,13.4,22.0,9.1,3.5,75,62,53,30.43,30.11,25,6,26,0.00
2013-11-27,23.1,16.2,5.1,12.1,8.4,2.1,91,72,57,30.44,30.12,9,0,10,0.00
2013-11-28,24.6,21.7,20.8,15.7,13.5,12.1,76,70,67,30.34,30.11,12,1,14,0.00
2013-11-29,32.4,20.4,6.1,20.9,14.6,3.6,93,79,60,30.57,30.19,1,0,14,0.00
2013-11-30,38.1,29.1,19.0,28.8,23.9,17.1,96,81,67,30.19,30.06,1,0,6,0.00
2013-12-1,32.6,26.3,15.5,26.2,22.3,13.4,95,85,76,30.22,29.95,2,0,7,0.00
2013-12-2,38.0,31.9,24.0,33.0,29.5,22.4,96,91,79,29.95,29.59,9,0,9,0.08
2013-12-3,34.2,33.0,31.1,33.4,32.2,30.1,97,97,96,29.79,29.59,9,0,11,0.21
2013-12-4,31.1,26.5,11.0,30.2,24.7,6.9,97,93,83,29.79,29.50,14,1,14,0.00
2013-12-5,11.1,3.5,-5.5,7.0,-0.9,-9.0,96,82,72,30.44,29.76,18,0,21,0.00
2013-12-6,1.1,-5.9,-11.9,-5.2,-10.2,-16.1,86,81,73,30.76,30.43,5,0,6,0.00
2013-12-7,-1.4,-9.7,-17.6,-9.0,-14.2,-21.9,86,80,68,30.85,30.69,6,0,7,0.00
2013-12-8,12.3,5.7,-6.2,8.5,2.4,-9.7,90,86,83,30.69,30.11,5,0,5,0.00
2013-12-9,9.3,-2.4,-11.4,7.0,-6.6,-15.8,99,82,71,30.20,29.95,10,0,12,0.00
2013-12-10,20.6,7.6,0.9,10.6,1.6,-5.6,99,77,41,30.36,29.85,18,1,21,0.00
2013-12-11,4.9,-5.2,-10.2,-3.1,-10.9,-15.3,85,76,66,30.67,30.36,12,1,13,0.00
2013-12-12,18.4,9.9,-0.2,11.3,5.3,-4.8,89,81,70,30.41,30.21,5,0,5,0.00
2013-12-13,15.5,12.9,7.3,9.9,8.0,4.2,92,80,75,30.34,30.18,15,2,15,0.00
2013-12-14,11.0,9.6,9.2,7.4,6.4,5.9,88,86,83,30.34,30.27,7,1,7,0.00
2013-12-15,2.4,1.1,-2.0,-4.7,-6.6,-8.5,77,69,63,30.24,30.18,6,1,14,0.00
2013-12-16,16.7,8.8,1.8,13.4,4.5,-5.1,93,82,71,30.21,29.99,7,0,7,0.00
2013-12-17,31.7,20.1,1.0,27.4,14.7,-2.0,97,80,65,30.16,29.95,22,2,22,0.00
2013-12-18,37.3,21.5,0.7,27.7,17.1,-2.4,93,84,67,30.12,29.70,12,0,12,0.10
2013-12-19,27.8,17.4,14.9,22.6,12.4,8.6,88,81,73,30.11,29.84,18,4,18,0.00
2013-12-20,15.9,14.1,12.6,13.0,11.1,9.5,88,87,86,30.08,30.04,10,2,12,0.00
2013-12-21,21.0,17.7,15.0,15.3,13.4,11.1,86,83,77,30.05,29.91,4,1,14,0.00
2013-12-22,16.2,12.3,2.0,13.9,8.4,-2.2,92,84,81,30.31,30.00,5,2,13,0.00
2013-12-23,15.4,-5.3,-12.2,-2.5,-11.3,-17.4,92,75,33,30.61,30.32,4,1,13,0.00
2013-12-24,10.3,-2.5,-19.1,5.6,-8.0,-23.6,88,77,56,30.60,30.22,13,0,13,0.00
2013-12-25,28.2,15.4,9.0,24.0,11.4,5.6,99,84,64,30.23,30.10,17,1,18,0.00
2013-12-26,26.2,16.6,2.0,22.9,13.4,-1.0,94,87,83,30.22,30.12,2,0,2,0.00
2013-12-27,38.7,24.5,7.3,31.5,21.5,4.9,96,89,73,30.21,29.95,13,0,13,0.12
2013-12-28,43.8,27.5,18.2,33.4,24.3,14.2,97,88,65,30.04,29.66,24,2,26,0.16
2013-12-29,18.2,-2.7,-19.3,13.6,-10.1,-24.3,83,70,58,30.41,30.04,21,4,24,0.00
2013-12-30,1.7,-7.4,-20.2,-2.8,-11.5,-24.9,92,82,77,30.41,30.29,4,0,5,0.00
2013-12-31,-1.0,-7.6,-14.8,-6.7,-12.4,-19.2,87,79,69,30.52,30.31,7,0,7,0.00
2014-1-1,0.8,-3.4,-7.8,-6.7,-10.1,-14.7,77,72,68,30.60,30.50,10,1,10,0.00
2014-1-2,0.5,-6.4,-16.0,-7.6,-14.1,-20.8,83,69,50,30.61,30.49,7,1,8,0.00